[[{"header":{"parameterUnit":"m.s-1","parameterCategory":1,"la1":30.2991,"la2":30.254,"lo1":-89.0895,"lo2":-89.0444,"dy":0.0017,"dx":0.0017,"nx":28,"ny":28,"refTime":"2025-09-11T03:00:00:Z","depth":0,"parameterNumber":2,"parameterNumberName":"U-component_of_WINDS"},"data":[0,0,0,0,0,0,0,0,0,0,0,0,0,0,0,0,0,0,0,0,0,0,0,0,0,0,0,0,0,0,0,0,0,0,0,0,0,0,0,0,0,0,0,0,0,0,0,0,0,0,0,0,0,0,0,0,0,0,-2.9613,-2.9613,0,-2.9614,-2.9614,-2.9614,-2.9555,-2.9553,-2.9552,-2.955,-2.9551,-2.9552,-2.9554,0,0,0,0,0,0,0,0,0,0,0,0,0,-2.956,-2.9561,-2.9613,-2.9613,-2.9613,-2.9614,-2.9614,-2.9614,-2.9555,-2.9553,-2.9551,-2.955,-2.955,-2.9552,-2.9554,0,0,0,0,0,0,0,0,0,0,0,0,0,-2.9574,-2.9562,-2.9613,-2.9584,-2.9581,-2.9614,-2.9614,-2.9614,-2.9556,-2.9553,-2.9551,-2.9549,-2.955,-2.9552,-2.9554,-2.9615,0,0,-2.9561,-2.9562,0,0,0,0,0,0,0,0,-2.9574,-2.9576,-2.9588,-2.9586,-2.9583,-2.9582,-2.9596,-2.9615,-2.9556,-2.9565,-2.955,-2.9547,-2.9563,-2.9564,-2.9569,-2.9615,-2.9615,-2.9561,-2.9562,-2.9563,-2.9564,0,0,0,0,0,0,0,-2.9573,-2.9576,-2.9613,-2.9588,-2.9585,-2.9571,-2.957,-2.9599,-2.9577,-2.9564,-2.956,-2.9561,-2.9561,-2.9567,-2.9569,-2.9615,-2.9561,-2.9563,-2.9564,-2.9565,-2.9713,-2.9716,0,0,0,0,0,0,-2.9576,-2.9576,-2.9613,-2.9613,-2.9572,-2.9574,-2.9573,-2.9585,-2.9577,-2.9573,-2.9563,-2.9558,-2.9565,-2.9566,-2.9569,-2.9641,-2.9563,-2.9565,-2.9567,-2.9711,-2.9714,-2.9716,0,0,0,0,0,0,-2.9575,-2.958,-2.9613,-2.9593,-2.9597,-2.9577,-2.9591,-2.9586,-2.9592,-2.9576,-2.9572,-2.9573,-2.9563,-2.9566,-2.9605,-2.964,-2.9566,-2.9568,-2.9707,-2.9711,-2.9715,-2.9786,0,0,0,0,0,0,-2.9574,-2.958,-2.9602,-2.9594,-2.9598,-2.9649,-2.9593,-2.9588,-2.9596,-2.959,-2.9585,-2.9581,-2.9561,-2.9602,-2.9607,-2.9642,-2.957,-2.9704,-2.9709,-2.9714,-2.9781,-2.9792,-2.9802,0,0,0,0,0,-2.9572,-2.9622,-2.9604,-2.9609,-2.9626,-2.9651,-2.9653,-2.963,-2.9599,-2.9622,-2.9612,-2.9582,-2.9636,-2.9606,-2.9611,-2.9648,-2.9702,-2.9708,-2.9713,-2.9776,-2.979,-2.9802,0,0,0,0,0,0,-2.9634,-2.962,-2.96,-2.9649,-2.9652,-2.9641,-2.9669,-2.9645,-2.9656,-2.965,-2.9619,-2.9619,-2.9663,-2.9659,-2.9626,-2.9708,-2.9663,-2.9671,-2.9709,-2.9722,-2.9732,-2.9733,-2.9572,0,0,0,0,0,-2.9653,-2.9675,-2.9662,-2.9706,-2.9709,-2.9689,-2.9699,-2.9681,-2.9683,-2.9683,-2.9676,-2.9679,-2.9696,-2.9709,-2.9724,-2.9779,-2.9778,-2.9807,-2.9818,-2.9827,-2.9834,-2.9865,-2.9878,-2.9736,-2.9736,-2.9735,0,0,-2.9693,-2.9689,-2.9704,-2.9719,-2.9719,-2.9743,-2.9691,-2.9717,-2.9735,-2.9687,-2.9724,-2.9719,-2.972,-2.9768,-2.9789,-2.9766,-2.9873,-2.9834,-2.9841,-2.9844,-2.9872,-2.9886,-2.9898,-2.974,-2.9739,-2.9738,0,0,-2.9779,-2.9777,-2.9815,-2.9817,-2.9818,-2.9805,-2.9814,-2.9808,-2.9803,-2.9839,-2.9805,-2.9825,-2.9856,-2.9859,-2.9864,-2.9953,-2.9926,-2.9959,-3.0015,-3.0046,-3.0057,-3.0067,-3.01,-3.0112,-2.9966,-2.9966,-2.9966,0,-2.9829,-2.9864,-2.9837,-2.9868,-2.9876,-2.9834,-2.9873,-2.9875,-2.9882,-2.9888,-2.9863,-2.9902,-2.9899,-2.9949,-2.9971,-2.9976,-2.9986,-2.996,-3.0057,-3.0067,-3.0076,-3.0107,-3.012,-2.997,-2.9969,-2.9969,-2.9969,0,-2.9926,-2.9951,-2.9981,-2.9989,-3.0,-3.0035,-3.0014,-3.0029,-3.0009,-2.9999,-3.0038,-3.0034,-3.0049,-3.0059,-3.004,-3.0106,-3.0092,-3.0062,-3.0017,-3.0094,-3.0123,-3.0135,-2.9976,-2.9974,-2.9973,-2.9972,0,0,-3.0051,-3.0045,-3.0057,-3.0061,-3.006,-3.0079,-3.0111,-3.0126,-3.0141,-3.0146,-3.0174,-3.0201,-3.0175,-3.0181,-3.0162,-3.0189,-3.0262,-3.0156,-3.0155,-3.0177,-3.0337,-3.0361,-3.0375,-3.0244,-3.0246,-3.0248,-3.0338,0,-3.0136,-3.0192,-3.017,-3.0228,-3.0251,-3.0213,-3.0242,-3.0245,-3.0236,-3.0255,-3.0245,-3.0266,-3.0228,-3.0232,-3.0257,-3.0248,-3.0294,-3.0241,-3.027,-3.0272,-3.0273,-3.039,-3.0415,-3.05,-3.0349,-3.0351,-3.0352,0,-3.0242,-3.0254,-3.0315,-3.0312,-3.032,-3.0347,-3.036,-3.0378,-3.0381,-3.0373,-3.0381,-3.0357,-3.0389,-3.0344,-3.0389,-3.0354,-3.0364,-3.0362,-3.0365,-3.0368,-3.0318,-3.0398,-3.0526,-3.054,-3.0369,-3.0368,-3.0367,0,-3.033,-3.036,-3.0401,-3.0405,-3.0402,-3.0422,-3.0422,-3.0422,-3.0433,-3.0444,-3.0452,-3.0466,-3.0475,-3.0487,-3.0468,-3.0436,-3.0516,-3.0469,-3.0512,-3.0513,-3.0531,-3.0531,-3.0665,-3.0536,-3.0535,-3.0535,-3.0535,0,-3.0427,-3.0467,-3.0441,-3.0466,-3.0509,-3.0484,-3.0527,-3.0522,-3.0524,-3.0548,-3.0515,-3.0538,-3.051,-3.0532,-3.0516,-3.0557,-3.0561,-3.0556,-3.0552,-3.056,-3.0561,-3.0568,-3.0562,-3.0539,-3.0538,-3.0537,-3.0537,0,-3.0533,-3.0517,-3.0559,-3.0553,-3.0553,-3.0585,-3.058,-3.0604,-3.0593,-3.0625,-3.063,-3.0614,-3.0637,-3.0619,-3.0641,-3.0631,-3.0686,-3.0673,-3.0686,-3.0683,-3.0728,-3.0724,-3.0872,-3.0891,-3.0748,-3.0749,-3.075,0,-3.0597,-3.0627,-3.0625,-3.0639,-3.0641,-3.0664,-3.0676,-3.0652,-3.0665,-3.0672,-3.0695,-3.0716,-3.0731,-3.077,-3.076,-3.0778,-3.0765,-3.0816,-3.0768,-3.0776,-3.0769,-3.0768,-3.0772,-3.0826,-3.0828,-3.0829,-3.083,0,-3.0714,-3.0705,-3.0723,-3.074,-3.0755,-3.0766,-3.0775,-3.0788,-3.0764,-3.0781,-3.0805,-3.0817,-3.0841,-3.0862,-3.0877,-3.0876,-3.085,-3.0846,-3.0857,-3.0866,-3.0874,-3.0872,-3.0714,-3.0843,-3.0841,-3.084,-3.084,-3.0839,-3.0802,-3.0828,-3.0831,-3.0853,-3.0857,-3.0866,-3.0889,-3.0882,-3.0902,-3.092,-3.0904,-3.0933,-3.0937,-3.0954,-3.0957,-3.0979,-3.0958,-3.0974,-3.0978,-3.0983,-3.0991,-3.0869,-3.0981,-3.0981,-3.0981,-3.098,-3.098,0,-3.0919,-3.0919,-3.094,-3.0954,-3.0972,-3.0946,-3.0955,-3.0971,-3.0998,-3.1003,-3.1019,-3.1048,-3.1069,-3.1061,-3.108,-3.11,-3.1089,-3.1106,-3.1105,-3.1106,-3.1007,-3.0997,-3.1115,-3.1115,-3.1115,-3.1115,-3.1115,-3.1115,-3.0982,-3.1024,-3.1016,-3.1061,-3.1061,-3.109,-3.1097,-3.1106,-3.1111,-3.1144,-3.1162,-3.1157,-3.1158,-3.1176,-3.1195,-3.1192,-3.1201,-3.1224,-3.1217,-3.1125,-3.1112,-3.11,-3.109,-3.1225,-3.1225,-3.1313,-3.1314,-3.1315]},{"header":{"parameterUnit":"m.s-1","parameterCategory":1,"la1":30.2991,"la2":30.254,"lo1":-89.0895,"lo2":-89.0444,"dy":0.0017,"dx":0.0017,"nx":28,"ny":28,"refTime":"2025-09-11T03:00:00:Z","depth":0,"parameterNumber":3,"parameterNumberName":"V-component_of_WINDS"},"data":[0,0,0,0,0,0,0,0,0,0,0,0,0,0,0,0,0,0,0,0,0,0,0,0,0,0,0,0,0,0,0,0,0,0,0,0,0,0,0,0,0,0,0,0,0,0,0,0,0,0,0,0,0,0,0,0,0,0,-2.0238,-2.0238,0,-2.025,-2.025,-2.025,-2.0216,-2.0215,-2.0214,-2.0213,-2.0225,-2.0226,-2.0227,0,0,0,0,0,0,0,0,0,0,0,0,0,-2.0182,-2.0183,-2.0238,-2.0238,-2.0238,-2.025,-2.025,-2.0251,-2.0216,-2.0215,-2.0214,-2.0212,-2.0224,-2.0226,-2.0228,0,0,0,0,0,0,0,0,0,0,0,0,0,-2.0202,-2.0184,-2.0237,-2.0222,-2.0221,-2.025,-2.025,-2.0251,-2.0216,-2.0215,-2.0213,-2.0212,-2.0224,-2.0226,-2.0228,-2.0272,0,0,-2.0234,-2.0235,0,0,0,0,0,0,0,0,-2.02,-2.0204,-2.0224,-2.0223,-2.0222,-2.023,-2.0235,-2.0258,-2.0217,-2.0218,-2.0213,-2.0211,-2.0228,-2.0229,-2.0235,-2.0273,-2.0273,-2.0234,-2.0235,-2.0236,-2.0237,0,0,0,0,0,0,0,-2.0199,-2.0203,-2.0242,-2.0225,-2.0223,-2.0214,-2.0215,-2.0239,-2.0232,-2.0218,-2.0215,-2.0217,-2.0227,-2.0233,-2.0235,-2.0273,-2.0234,-2.0236,-2.0237,-2.0238,-2.0347,-2.0349,0,0,0,0,0,0,-2.02,-2.0202,-2.0242,-2.0243,-2.0207,-2.0217,-2.0218,-2.0229,-2.0231,-2.023,-2.0219,-2.0216,-2.0231,-2.0233,-2.0236,-2.0288,-2.0236,-2.0238,-2.0239,-2.0346,-2.0348,-2.035,0,0,0,0,0,0,-2.0199,-2.0204,-2.0242,-2.0222,-2.0226,-2.0219,-2.0232,-2.023,-2.0237,-2.0232,-2.023,-2.0227,-2.023,-2.0233,-2.0263,-2.0288,-2.0239,-2.0241,-2.0344,-2.0346,-2.0349,-2.0393,0,0,0,0,0,0,-2.0197,-2.0204,-2.0221,-2.0222,-2.0227,-2.027,-2.0234,-2.0231,-2.024,-2.0236,-2.0239,-2.0238,-2.0229,-2.0261,-2.0265,-2.029,-2.0242,-2.0341,-2.0345,-2.0348,-2.0389,-2.0396,-2.0403,0,0,0,0,0,-2.0196,-2.0233,-2.0222,-2.0227,-2.0249,-2.0271,-2.0274,-2.0262,-2.0242,-2.0259,-2.0256,-2.0238,-2.0284,-2.0264,-2.0269,-2.0294,-2.034,-2.0344,-2.0348,-2.0386,-2.0395,-2.0403,0,0,0,0,0,0,-2.0234,-2.0233,-2.0221,-2.0259,-2.0266,-2.0265,-2.0287,-2.0272,-2.0284,-2.028,-2.0264,-2.0265,-2.0299,-2.0299,-2.0277,-2.0337,-2.0308,-2.0314,-2.0336,-2.0344,-2.0351,-2.0351,-2.0244,0,0,0,0,0,-2.0247,-2.0266,-2.0263,-2.0298,-2.0301,-2.0294,-2.0303,-2.0293,-2.0299,-2.0302,-2.0301,-2.0307,-2.0322,-2.0333,-2.0347,-2.0388,-2.0389,-2.0408,-2.0415,-2.0421,-2.0426,-2.0448,-2.0456,-2.0362,-2.0362,-2.0362,0,0,-2.0274,-2.0275,-2.0288,-2.0305,-2.0309,-2.0329,-2.0296,-2.0318,-2.0333,-2.0305,-2.0334,-2.0333,-2.0339,-2.0375,-2.0391,-2.0377,-2.0451,-2.0426,-2.043,-2.0432,-2.0453,-2.0461,-2.0469,-2.0365,-2.0365,-2.0364,0,0,-2.0334,-2.0336,-2.0366,-2.037,-2.0376,-2.037,-2.0377,-2.0379,-2.0378,-2.0407,-2.0386,-2.0403,-2.043,-2.0435,-2.0441,-2.0502,-2.0486,-2.0506,-2.0543,-2.0564,-2.0572,-2.0578,-2.0601,-2.0609,-2.0511,-2.0511,-2.0511,0,-2.0366,-2.0396,-2.0382,-2.0406,-2.0414,-2.039,-2.0419,-2.0423,-2.0434,-2.044,-2.0423,-2.0457,-2.0459,-2.0496,-2.0511,-2.0516,-2.0524,-2.0507,-2.0572,-2.0578,-2.0584,-2.0605,-2.0614,-2.0514,-2.0513,-2.0513,-2.0513,0,-2.0436,-2.0457,-2.0479,-2.049,-2.0501,-2.0527,-2.0517,-2.0529,-2.0518,-2.0514,-2.0544,-2.0545,-2.0559,-2.0567,-2.0556,-2.0602,-2.0593,-2.0575,-2.0546,-2.0596,-2.0616,-2.0623,-2.0517,-2.0517,-2.0516,-2.0515,0,0,-2.0522,-2.0524,-2.0533,-2.0538,-2.0542,-2.0558,-2.0582,-2.0596,-2.0607,-2.0615,-2.0635,-2.0659,-2.0641,-2.0648,-2.0638,-2.0657,-2.0705,-2.0636,-2.0635,-2.0649,-2.0756,-2.0771,-2.0781,-2.0694,-2.0695,-2.0696,-2.0756,0,-2.0581,-2.0625,-2.0613,-2.0656,-2.0675,-2.0651,-2.0673,-2.0678,-2.0674,-2.0689,-2.0685,-2.0702,-2.0678,-2.0682,-2.0699,-2.0696,-2.0727,-2.0691,-2.0713,-2.0714,-2.0714,-2.0791,-2.0807,-2.0863,-2.0764,-2.0765,-2.0766,0,-2.0657,-2.0668,-2.0713,-2.0714,-2.0722,-2.0742,-2.0753,-2.0768,-2.0773,-2.0769,-2.0776,-2.0762,-2.0786,-2.0756,-2.0789,-2.0765,-2.0773,-2.0772,-2.0774,-2.0777,-2.0744,-2.0797,-2.0881,-2.089,-2.0778,-2.0777,-2.0776,0,-2.0716,-2.0741,-2.0772,-2.0777,-2.0779,-2.0793,-2.0794,-2.0798,-2.0807,-2.0817,-2.0822,-2.0835,-2.0842,-2.0852,-2.0841,-2.082,-2.0875,-2.0845,-2.0873,-2.0874,-2.0887,-2.0887,-2.0975,-2.089,-2.089,-2.089,-2.089,0,-2.0784,-2.0813,-2.0799,-2.0818,-2.0849,-2.0834,-2.0866,-2.0864,-2.0867,-2.0885,-2.0865,-2.0882,-2.0866,-2.0881,-2.0873,-2.0902,-2.0905,-2.0902,-2.09,-2.0905,-2.0905,-2.0911,-2.0907,-2.0892,-2.0892,-2.0891,-2.0891,0,-2.0856,-2.0847,-2.0879,-2.0878,-2.0879,-2.0902,-2.0901,-2.0918,-2.0913,-2.0936,-2.094,-2.0932,-2.0949,-2.0939,-2.0956,-2.095,-2.0988,-2.098,-2.0987,-2.0985,-2.1015,-2.1013,-2.1111,-2.1123,-2.103,-2.1031,-2.1031,0,-2.0901,-2.0923,-2.0924,-2.0935,-2.0938,-2.0955,-2.0964,-2.095,-2.096,-2.0967,-2.0984,-2.0999,-2.1011,-2.1039,-2.1035,-2.1048,-2.104,-2.1074,-2.1042,-2.1047,-2.1042,-2.1041,-2.1044,-2.1081,-2.1082,-2.1083,-2.1083,0,-2.0982,-2.0976,-2.0991,-2.1004,-2.1015,-2.1024,-2.1032,-2.1042,-2.1027,-2.104,-2.1058,-2.1067,-2.1084,-2.11,-2.1111,-2.1112,-2.1096,-2.1093,-2.1101,-2.1107,-2.111,-2.111,-2.1006,-2.1091,-2.109,-2.109,-2.1089,-2.1089,-2.1042,-2.1061,-2.1065,-2.1081,-2.1085,-2.1092,-2.1109,-2.1105,-2.112,-2.1133,-2.1124,-2.1145,-2.1148,-2.1161,-2.1164,-2.118,-2.1167,-2.1177,-2.118,-2.1183,-2.1188,-2.1107,-2.1182,-2.1182,-2.1181,-2.1181,-2.1181,0,-2.1123,-2.1124,-2.1139,-2.1151,-2.1164,-2.1146,-2.1154,-2.1166,-2.1184,-2.1189,-2.1201,-2.1221,-2.1236,-2.1232,-2.1246,-2.1259,-2.1252,-2.1263,-2.1263,-2.1263,-2.1199,-2.1191,-2.1269,-2.1269,-2.1269,-2.1269,-2.1269,-2.1269,-2.1167,-2.1197,-2.1192,-2.1223,-2.1224,-2.1245,-2.125,-2.1257,-2.1261,-2.1284,-2.1297,-2.1294,-2.1295,-2.1308,-2.1321,-2.132,-2.1326,-2.134,-2.1336,-2.1276,-2.1268,-2.1259,-2.1253,-2.1341,-2.1342,-2.1399,-2.14,-2.14]}]]